College Station, TX

6:26 AM CDT on September 28, 2016 (GMT -0500)
Easterwood

Weather History for KCLL - October, 2012

Change the Weather History Date:

Sunday, October 28, 2012

  Actual Average Record
Temperature  
Mean Temperature 54 °F 67 °F  
Max Temperature 67 °F 78 °F 91 °F (1917)
Min Temperature 41 °F 57 °F 32 °F (1957)
Degree Days  
Heating Degree Days 11 2  
Month to date heating degree days 43 24  
Since 1 July heating degree days 43 26  
Cooling Degree Days 0 5  
Month to date cooling degree days 222 203  
Year to date cooling degree days 3481 2999  
Growing Degree Days 4 (Base 50)    
Moisture  
Dew Point 34 °F    
Average Humidity 53    
Maximum Humidity 79    
Minimum Humidity 26    
Precipitation  
Precipitation 0.00 in 0.15 in 2.88 in (1974)
Month to date precipitation 2.17 4.50  
Year to date precipitation 36.92 33.20  
Sea Level Pressure  
Sea Level Pressure 30.22 in    
Wind  
Wind Speed 6 mph (North)    
Max Wind Speed 14 mph    
Max Gust Speed 17 mph    
Visibility 10 miles    
Events      
T = Trace of Precipitation, MM = Missing Value Source: NWS Daily Summary

Daily Weather History Graph

Daily Weather History Graph

Search for Another Location

Airport or City:

Trip Planner

Search our weather history database for the weather conditions in past years. The results will help you decide how hot, cold, wet, or windy it might be!

Date:

Astronomy

Oct. 28, 2012 Rise Set
Actual Time 7:37 AM CDT 6:40 PM CDT
Civil Twilight 7:12 AM CDT 7:05 PM CDT
Nautical Twilight 6:44 AM CDT 7:33 PM CDT
Astronomical Twilight 6:16 AM CDT 8:01 PM CDT
Moon 5:58 PM CDT 6:33 AM CDT
Length of Visible Light 11h 52m
Length of Day
11h 03m
Waxing Gibbous, 99% of the Moon is Illuminated
Oct 28
Waxing Gibbous
Oct 29
Full
Nov 6
Last Quarter
Nov 13
New
Nov 20
First Quarter

Hourly Weather History & Observations

Time (CDT) Temp. Windchill Dew Point Humidity Pressure Visibility Wind Dir Wind Speed Gust Speed Precip Events Conditions
12:53 AM 46.9 °F - 37.0 °F 68% 30.21 in 10.0 mi North 5.8 mph - N/A   Clear
1:53 AM 46.9 °F - 37.0 °F 68% 30.21 in 10.0 mi North 4.6 mph - N/A   Clear
2:53 AM 45.0 °F 41.8 °F 37.0 °F 74% 30.22 in 10.0 mi NNW 5.8 mph - N/A   Clear
3:53 AM 44.1 °F 40.8 °F 36.0 °F 73% 30.21 in 10.0 mi NNW 5.8 mph - N/A   Clear
4:53 AM 42.1 °F 40.2 °F 36.0 °F 79% 30.20 in 10.0 mi NNW 3.5 mph - N/A   Clear
5:53 AM 42.1 °F 38.4 °F 36.0 °F 79% 30.21 in 10.0 mi North 5.8 mph - N/A   Clear
6:53 AM 42.1 °F 39.2 °F 36.0 °F 79% 30.23 in 10.0 mi NNW 4.6 mph - N/A   Clear
7:53 AM 41.0 °F 39.0 °F 36.0 °F 82% 30.24 in 10.0 mi NW 3.5 mph - N/A   Clear
8:53 AM 45.0 °F 43.5 °F 37.9 °F 76% 30.27 in 10.0 mi NW 3.5 mph - N/A   Clear
9:53 AM 52.0 °F - 37.0 °F 57% 30.28 in 10.0 mi North 5.8 mph - N/A   Clear
10:53 AM 55.9 °F - 35.1 °F 45% 30.27 in 10.0 mi Variable 4.6 mph - N/A   Clear
11:53 AM 60.8 °F - 35.6 °F 39% 30.27 in 10.0 mi North 9.2 mph - N/A   Clear
12:53 PM 62.1 °F - 30.0 °F 30% 30.25 in 10.0 mi NW 9.2 mph - N/A   Clear
1:53 PM 64.0 °F - 28.9 °F 27% 30.22 in 10.0 mi North 11.5 mph - N/A   Clear
2:53 PM 64.9 °F - 28.9 °F 26% 30.19 in 10.0 mi NNE 9.2 mph - N/A   Clear
3:53 PM 66.9 °F - 30.9 °F 26% 30.17 in 10.0 mi NNW 10.4 mph - N/A   Clear
4:53 PM 66.0 °F - 30.9 °F 27% 30.16 in 10.0 mi North 6.9 mph - N/A   Clear
5:53 PM 64.0 °F - 32.0 °F 30% 30.16 in 10.0 mi North 10.4 mph - N/A   Clear
6:53 PM 57.9 °F - 34.0 °F 41% 30.18 in 10.0 mi North 4.6 mph - N/A   Clear
7:53 PM 55.0 °F - 34.0 °F 45% 30.19 in 10.0 mi North 4.6 mph - N/A   Clear
8:53 PM 53.1 °F - 35.1 °F 50% 30.20 in 10.0 mi North 5.8 mph - N/A   Clear
9:53 PM 50.0 °F - 35.1 °F 57% 30.22 in 10.0 mi North 3.5 mph - N/A   Clear
10:53 PM 52.0 °F - 34.0 °F 50% 30.23 in 10.0 mi NNE 8.1 mph - N/A   Clear
11:53 PM 50.0 °F - 33.1 °F 52% 30.23 in 10.0 mi NNE 4.6 mph - N/A   Clear